Tulsa, OK

11:32 AM CST on December 14, 2017 (GMT -0600)
Tulsa International

Weather History for KTUL - December, 2014

Change the Weather History Date:

Saturday, December 6, 2014

  Actual Average Record
Temperature  
Mean Temperature 46 °F 42 °F  
Max Temperature 48 °F 52 °F 77 °F (1966)
Min Temperature 43 °F 32 °F 3 °F (1950)
Degree Days  
Heating Degree Days 19 24  
Month to date heating degree days 134 137  
Since 1 July heating degree days 835 773  
Moisture  
Dew Point 43 °F    
Average Humidity 91    
Maximum Humidity 100    
Minimum Humidity 82    
Precipitation  
Precipitation T in 0.09 in 1.65 in (1935)
Month to date precipitation 0.27 0.52  
Year to date precipitation 27.90 39.00  
Sea Level Pressure  
Sea Level Pressure 30.43 in    
Wind  
Wind Speed 8 mph (NNE)    
Max Wind Speed 14 mph    
Max Gust Speed 19 mph    
Visibility 7 miles    
Events Rain    
T = Trace of Precipitation, MM = Missing Value Source: NWS Daily Summary

Daily Weather History Graph

Daily Weather History Graph

Search for Another Location

Airport or City:

Trip Planner

Search our weather history database for the weather conditions in past years. The results will help you decide how hot, cold, wet, or windy it might be!

Date:

Astronomy

Dec. 06, 2014 Rise Set
Actual Time 7:20 AM CST 5:08 PM CST
Civil Twilight 6:52 AM CST 5:37 PM CST
Nautical Twilight 6:20 AM CST 6:09 PM CST
Astronomical Twilight 5:49 AM CST 6:40 PM CST
Moon 5:44 PM CST (12/6) 7:14 AM CST (12/6)
Length of Visible Light 10h 44m
Length of Day
9h 48m
Full, 100% of the Moon is Illuminated
Dec 6
Full
Dec 14
Last Quarter
Dec 21
New
Dec 28
First Quarter
Jan 4
Full

Hourly Weather History & Observations

Time (CST) Temp. Windchill Dew Point Humidity Pressure Visibility Wind Dir Wind Speed Gust Speed Precip Events Conditions
12:53 AM 46.9 °F - 46.9 °F 100% 30.27 in 10.0 mi NW 6.9 mph - N/A   Overcast
1:29 AM 48.0 °F - 46.9 °F 96% 30.29 in 10.0 mi NNW 12.7 mph - N/A   Overcast
1:47 AM 46.4 °F 41.1 °F 46.4 °F 100% 30.30 in 1.0 mi North 11.5 mph - N/A   Overcast
1:53 AM 46.9 °F - 46.9 °F 100% 30.30 in 1.0 mi North 9.2 mph - N/A   Overcast
2:51 AM 46.4 °F 40.7 °F 46.4 °F 100% 30.33 in 4.0 mi North 12.7 mph - N/A   Overcast
2:53 AM 46.0 °F 41.0 °F 46.0 °F 100% 30.33 in 4.0 mi North 10.4 mph - N/A   Overcast
3:53 AM 46.9 °F - 46.0 °F 97% 30.33 in 4.0 mi North 9.2 mph - N/A   Overcast
4:24 AM 46.9 °F - 46.0 °F 97% 30.34 in 5.0 mi NNE 11.5 mph - N/A   Overcast
4:36 AM 46.9 °F - 46.0 °F 97% 30.34 in 5.0 mi North 10.4 mph - N/A   Overcast
4:53 AM 46.9 °F - 46.0 °F 97% 30.34 in 5.0 mi North 9.2 mph - N/A   Overcast
5:53 AM 46.9 °F - 46.0 °F 97% 30.38 in 5.0 mi North 10.4 mph - 0.00 in   Light Drizzle
6:44 AM 46.9 °F - 45.0 °F 93% 30.40 in 5.0 mi NNE 8.1 mph - 0.00 in   Light Drizzle
6:53 AM 46.0 °F 41.9 °F 45.0 °F 96% 30.41 in 5.0 mi NNE 8.1 mph - 0.00 in   Light Drizzle
7:53 AM 46.0 °F 41.0 °F 44.1 °F 93% 30.44 in 4.0 mi North 10.4 mph 19.6 mph 0.00 in   Light Drizzle
8:53 AM 46.0 °F 42.5 °F 43.0 °F 89% 30.47 in 7.0 mi NE 6.9 mph - 0.00 in   Overcast
9:53 AM 46.0 °F 41.9 °F 43.0 °F 89% 30.49 in 7.0 mi NE 8.1 mph - N/A   Overcast
10:32 AM 46.0 °F 42.5 °F 43.0 °F 89% 30.50 in 8.0 mi North 6.9 mph - N/A   Overcast
10:53 AM 46.0 °F 41.9 °F 42.1 °F 86% 30.50 in 8.0 mi NE 8.1 mph - N/A   Overcast
11:53 AM 46.0 °F 41.9 °F 42.1 °F 86% 30.49 in 7.0 mi North 8.1 mph - N/A   Overcast
12:53 PM 46.0 °F 41.0 °F 42.1 °F 86% 30.48 in 8.0 mi North 10.4 mph - N/A   Overcast
1:53 PM 46.0 °F 41.0 °F 41.0 °F 83% 30.48 in 8.0 mi North 10.4 mph - N/A   Overcast
2:53 PM 46.4 °F 41.9 °F 41.0 °F 81% 30.48 in 9.0 mi North 9.2 mph - N/A   Overcast
3:53 PM 44.6 °F 39.7 °F 41.0 °F 87% 30.48 in 7.0 mi North 9.2 mph - N/A   Overcast
4:53 PM 45.0 °F 40.6 °F 41.0 °F 86% 30.48 in 6.0 mi NE 8.1 mph - N/A   Overcast
5:53 PM 45.0 °F 41.8 °F 39.9 °F 82% 30.50 in 8.0 mi NNE 5.8 mph - N/A   Overcast
6:53 PM 45.0 °F 40.1 °F 39.9 °F 82% 30.50 in 9.0 mi NE 9.2 mph - N/A   Overcast
7:53 PM 44.1 °F 40.1 °F 39.9 °F 85% 30.51 in 10.0 mi ENE 6.9 mph - N/A   Overcast
8:53 PM 43.0 °F 38.8 °F 39.9 °F 89% 30.50 in 10.0 mi ENE 6.9 mph - N/A   Overcast
9:29 PM 43.0 °F 38.8 °F 39.9 °F 89% 30.49 in 10.0 mi NNE 6.9 mph - N/A   Overcast
9:53 PM 43.0 °F 37.7 °F 39.9 °F 89% 30.50 in 9.0 mi NE 9.2 mph - N/A   Overcast
10:53 PM 43.0 °F 38.8 °F 39.9 °F 89% 30.49 in 7.0 mi NE 6.9 mph - N/A   Overcast
11:53 PM 43.0 °F 40.3 °F 39.9 °F 89% 30.48 in 10.0 mi East 4.6 mph - N/A   Overcast